Time,TemperatureF,DewpointF,PressureIn,WindDirection,WindDirectionDegrees,WindSpeedMPH,WindSpeedGustMPH,Humidity,HourlyPrecipIn,Conditions,Clouds,dailyrainin,SolarRadiationWatts/m^2,SoftwareType,DateUTC
2013-05-09 00:00:00,49.0,38.0,-100.00,SE,135,0.0,-999.0,64,-99.99,,,-99.99,0.000000,,2013-05-09 05:00:00,
2013-05-09 00:42:00,49.0,38.0,-100.00,SE,135,0.0,-999.0,64,-99.99,,,-99.99,0.000000,,2013-05-09 05:42:00,
2013-05-09 00:52:00,49.0,38.0,-100.00,SE,135,0.0,-999.0,64,-99.99,,,-99.99,0.000000,,2013-05-09 05:52:00,
2013-05-09 01:00:00,48.0,39.0,-100.00,East,90,0.0,-999.0,70,-99.99,,,-99.99,0.000000,,2013-05-09 06:00:00,
2013-05-09 01:42:00,48.0,39.0,-100.00,East,90,0.0,-999.0,70,-99.99,,,-99.99,0.000000,,2013-05-09 06:42:00,
2013-05-09 01:52:00,48.0,39.0,-100.00,East,90,0.0,-999.0,70,-99.99,,,-99.99,0.000000,,2013-05-09 06:52:00,
2013-05-09 02:00:00,47.0,41.0,-100.00,North,0,1.0,-999.0,78,-99.99,,,-99.99,0.000000,,2013-05-09 07:00:00,
2013-05-09 02:43:00,47.0,41.0,-100.00,North,0,1.0,-999.0,78,-99.99,,,-99.99,0.000000,,2013-05-09 07:43:00,
2013-05-09 02:52:00,47.0,41.0,-100.00,North,0,1.0,-999.0,78,-99.99,,,-99.99,0.000000,,2013-05-09 07:52:00,
2013-05-09 03:00:00,50.0,40.0,-100.00,NNE,22,1.0,-999.0,68,-99.99,,,-99.99,0.000000,,2013-05-09 08:00:00,
2013-05-09 03:42:00,50.0,40.0,-100.00,NNE,22,1.0,-999.0,68,-99.99,,,-99.99,0.000000,,2013-05-09 08:42:00,
2013-05-09 03:52:00,50.0,40.0,-100.00,NNE,22,1.0,-999.0,68,-99.99,,,-99.99,0.000000,,2013-05-09 08:52:00,
2013-05-09 04:00:00,48.0,41.0,-100.00,NNE,22,0.0,-999.0,76,-99.99,,,-99.99,0.000000,,2013-05-09 09:00:00,
2013-05-09 04:43:00,48.0,41.0,-100.00,NNE,22,0.0,-999.0,76,-99.99,,,-99.99,0.000000,,2013-05-09 09:43:00,
2013-05-09 04:53:00,48.0,41.0,-100.00,NNE,22,0.0,-999.0,76,-99.99,,,-99.99,0.000000,,2013-05-09 09:53:00,
2013-05-09 05:00:00,44.0,39.0,-100.00,North,0,0.0,-999.0,82,-99.99,,,-99.99,0.000000,,2013-05-09 10:00:00,
2013-05-09 05:42:00,44.0,39.0,-100.00,North,0,0.0,-999.0,82,-99.99,,,-99.99,0.000000,,2013-05-09 10:42:00,
2013-05-09 05:52:00,44.0,39.0,-100.00,North,0,0.0,-999.0,82,-99.99,,,-99.99,0.000000,,2013-05-09 10:52:00,
2013-05-09 06:00:00,43.0,39.0,-100.00,NW,315,0.0,-999.0,86,-99.99,,,-99.99,9.280000,,2013-05-09 11:00:00,
2013-05-09 06:42:00,43.0,39.0,-100.00,NW,315,0.0,-999.0,86,-99.99,,,-99.99,9.280000,,2013-05-09 11:42:00,
2013-05-09 06:52:00,43.0,39.0,-100.00,NW,315,0.0,-999.0,86,-99.99,,,-99.99,9.280000,,2013-05-09 11:52:00,
2013-05-09 07:00:00,49.0,42.0,-100.00,NNE,22,0.0,-999.0,78,-99.99,,,-99.99,56.840000,,2013-05-09 12:00:00,
2013-05-09 07:43:00,49.0,42.0,-100.00,NNE,22,0.0,-999.0,78,-99.99,,,-99.99,56.840000,,2013-05-09 12:43:00,
2013-05-09 07:52:00,49.0,42.0,-100.00,NNE,22,0.0,-999.0,78,-99.99,,,-99.99,56.840000,,2013-05-09 12:52:00,
2013-05-09 08:00:00,56.0,41.0,-100.00,ENE,67,3.0,-999.0,57,-99.99,,,-99.99,81.199997,,2013-05-09 13:00:00,
2013-05-09 08:42:00,56.0,41.0,-100.00,ENE,67,3.0,-999.0,57,-99.99,,,-99.99,81.199997,,2013-05-09 13:42:00,
2013-05-09 08:52:00,56.0,41.0,-100.00,ENE,67,3.0,-999.0,57,-99.99,,,-99.99,81.199997,,2013-05-09 13:52:00,
2013-05-09 09:00:00,59.0,41.0,-100.00,ENE,67,3.0,-999.0,51,-99.99,,,-99.99,303.920013,,2013-05-09 14:00:00,
2013-05-09 09:42:00,59.0,41.0,-100.00,ENE,67,3.0,-999.0,51,-99.99,,,-99.99,303.920013,,2013-05-09 14:42:00,
2013-05-09 09:52:00,59.0,41.0,-100.00,ENE,67,3.0,-999.0,51,-99.99,,,-99.99,303.920013,,2013-05-09 14:52:00,
2013-05-09 10:00:00,63.0,43.0,-100.00,NE,45,5.0,-999.0,48,-99.99,,,-99.99,551.000000,,2013-05-09 15:00:00,
2013-05-09 10:43:00,63.0,43.0,-100.00,NE,45,5.0,-999.0,48,-99.99,,,-99.99,551.000000,,2013-05-09 15:43:00,
2013-05-09 10:53:00,63.0,43.0,-100.00,NE,45,5.0,-999.0,48,-99.99,,,-99.99,551.000000,,2013-05-09 15:53:00,
2013-05-09 11:00:00,60.0,43.0,-100.00,NNE,22,8.0,-999.0,51,-99.99,,,-99.99,656.559998,,2013-05-09 16:00:00,
2013-05-09 11:42:00,60.0,43.0,-100.00,NNE,22,8.0,-999.0,51,-99.99,,,-99.99,656.559998,,2013-05-09 16:42:00,
2013-05-09 11:53:00,60.0,43.0,-100.00,NNE,22,8.0,-999.0,51,-99.99,,,-99.99,656.559998,,2013-05-09 16:53:00,
2013-05-09 12:00:00,61.0,44.0,-100.00,NNE,22,10.0,-999.0,53,-99.99,,,-99.99,778.359985,,2013-05-09 17:00:00,
2013-05-09 12:42:00,61.0,44.0,-100.00,NNE,22,10.0,-999.0,53,-99.99,,,-99.99,778.359985,,2013-05-09 17:42:00,
2013-05-09 12:55:00,61.0,44.0,-100.00,NNE,22,10.0,-999.0,53,-99.99,,,-99.99,778.359985,,2013-05-09 17:55:00,
2013-05-09 13:00:00,61.0,44.0,-100.00,NNE,22,10.0,-999.0,52,-99.99,,,-99.99,813.159973,,2013-05-09 18:00:00,
2013-05-09 13:42:00,61.0,44.0,-100.00,NNE,22,10.0,-999.0,52,-99.99,,,-99.99,813.159973,,2013-05-09 18:42:00,
2013-05-09 13:52:00,61.0,44.0,-100.00,NNE,22,10.0,-999.0,52,-99.99,,,-99.99,813.159973,,2013-05-09 18:52:00,
2013-05-09 15:00:00,57.0,42.0,-100.00,NNE,22,12.0,-999.0,57,-99.99,,,-99.99,365.399994,,2013-05-09 20:00:00,
2013-05-09 15:42:00,57.0,42.0,-100.00,NNE,22,12.0,-999.0,57,-99.99,,,-99.99,365.399994,,2013-05-09 20:42:00,
2013-05-09 15:52:00,57.0,42.0,-100.00,NNE,22,12.0,-999.0,57,-99.99,,,-99.99,365.399994,,2013-05-09 20:52:00,
2013-05-09 17:00:00,50.0,40.0,-100.00,NNE,22,11.0,-999.0,67,-99.99,,,-99.99,174.000000,,2013-05-09 22:00:00,
2013-05-09 17:42:00,50.0,40.0,-100.00,NNE,22,11.0,-999.0,67,-99.99,,,-99.99,174.000000,,2013-05-09 22:42:00,
2013-05-09 17:52:00,50.0,40.0,-100.00,NNE,22,11.0,-999.0,67,-99.99,,,-99.99,174.000000,,2013-05-09 22:52:00,
2013-05-09 18:00:00,46.0,38.0,-100.00,NNE,22,11.0,-999.0,73,-99.99,,,-99.99,64.959999,,2013-05-09 23:00:00,
2013-05-09 18:42:00,46.0,38.0,-100.00,NNE,22,11.0,-999.0,73,-99.99,,,-99.99,64.959999,,2013-05-09 23:42:00,
2013-05-09 18:52:00,46.0,38.0,-100.00,NNE,22,11.0,-999.0,73,-99.99,,,-99.99,64.959999,,2013-05-09 23:52:00,
2013-05-09 20:00:00,42.0,36.0,-100.00,North,0,11.0,-999.0,77,-99.99,,,-99.99,9.280000,,2013-05-10 01:00:00,
2013-05-09 20:42:00,42.0,36.0,-100.00,North,0,11.0,-999.0,77,-99.99,,,-99.99,9.280000,,2013-05-10 01:42:00,
2013-05-09 20:52:00,42.0,36.0,-100.00,North,0,11.0,-999.0,77,-99.99,,,-99.99,9.280000,,2013-05-10 01:52:00,
2013-05-09 21:00:00,40.0,36.0,-100.00,NNE,22,10.0,-999.0,86,0.01,,,-99.99,0.000000,,2013-05-10 02:00:00,
2013-05-09 21:42:00,40.0,36.0,-100.00,NNE,22,10.0,-999.0,86,0.01,,,-99.99,0.000000,,2013-05-10 02:42:00,
2013-05-09 21:52:00,40.0,36.0,-100.00,NNE,22,10.0,-999.0,86,0.01,,,-99.99,0.000000,,2013-05-10 02:52:00,
2013-05-09 22:00:00,38.0,36.0,-100.00,NNE,22,11.0,-999.0,91,0.02,,,-99.99,0.000000,,2013-05-10 03:00:00,
2013-05-09 22:43:00,38.0,36.0,-100.00,NNE,22,11.0,-999.0,91,0.02,,,-99.99,0.000000,,2013-05-10 03:43:00,
2013-05-09 22:53:00,38.0,36.0,-100.00,NNE,22,11.0,-999.0,91,0.02,,,-99.99,0.000000,,2013-05-10 03:53:00,
2013-05-09 23:00:00,38.0,36.0,-100.00,NNE,22,10.0,-999.0,92,0.04,,,-99.99,0.000000,,2013-05-10 04:00:00,
2013-05-09 23:43:00,38.0,36.0,-100.00,NNE,22,10.0,-999.0,92,0.04,,,-99.99,0.000000,,2013-05-10 04:43:00,
2013-05-09 23:53:00,38.0,36.0,-100.00,NNE,22,10.0,-999.0,92,0.04,,,-99.99,0.000000,,2013-05-10 04:53:00,